This is the latest recevied weather packets stored in our database for station/object N4HAC. If no packets are shown the sender has not sent any weather packets the latest 1 day(s).
| Time | Temp. | Humidity | Pressure | Rain* | Wind** | Luminosity | Snow |
|---|---|---|---|---|---|---|---|
| 1836274662 | 18.33° C | 99% | 1012.9 hPa | 0 mm | 0 m/s | 0 W/m² | - |
| 1836274515 | 18.33° C | 99% | 1013.3 hPa | 0 mm | 0.45 m/s, 210° | 0 W/m² | - |
| 1836274360 | 18.33° C | 99% | 1013.1 hPa | 0 mm | 0.45 m/s, 170° | 0 W/m² | - |
| 1836274214 | 18.33° C | 99% | 1012.9 hPa | 0 mm | 0 m/s | 0 W/m² | - |
| 1836274059 | 18.33° C | 99% | 1012.9 hPa | 0 mm | 0.45 m/s, 154° | 0 W/m² | - |
| 1778040401 | 20° C | 52% | 1005.1 hPa | 0 mm | 2.24 m/s, 121° | 0 W/m² | - |
| 1778040098 | 20° C | 51% | 1005.3 hPa | 0 mm | 1.79 m/s, 135° | 0 W/m² | - |
| 1778039795 | 20° C | 51% | 1005 hPa | 0 mm | 1.79 m/s, 119° | 0 W/m² | - |
| 1778039491 | 19.44° C | 51% | 1005 hPa | 0 mm | 1.34 m/s, 125° | 0 W/m² | - |
| 1778039189 | 20° C | 51% | 1004.8 hPa | 0 mm | 1.79 m/s, 148° | 0 W/m² | - |
| 1778038885 | 20° C | 50% | 1005 hPa | 0 mm | 3.58 m/s, 139° | 0 W/m² | - |
| 1778038583 | 20° C | 50% | 1005.1 hPa | 0 mm | 2.24 m/s, 110° | 0 W/m² | - |
| 1778038280 | 20° C | 50% | 1005.2 hPa | 0 mm | 2.24 m/s, 139° | 0 W/m² | - |
| 1778037977 | 20° C | 50% | 1005.1 hPa | 0 mm | 0.89 m/s, 234° | 0 W/m² | - |
| 1778037674 | 20.56° C | 49% | 1005 hPa | 0 mm | 1.79 m/s, 142° | 0 W/m² | - |
| 1778037371 | 20.56° C | 49% | 1005.1 hPa | 0 mm | 4.02 m/s, 134° | 0 W/m² | - |
| 1778037068 | 20.56° C | 49% | 1004.9 hPa | 0 mm | 1.79 m/s, 141° | 0 W/m² | - |
| 1778036767 | 20.56° C | 48% | 1004.9 hPa | 0 mm | 2.68 m/s, 117° | 0 W/m² | - |
| 1778036463 | 20.56° C | 48% | 1005 hPa | 0 mm | 3.13 m/s, 140° | 0 W/m² | - |
| 1778036160 | 20.56° C | 48% | 1005.2 hPa | 0 mm | 1.34 m/s, 76° | 0 W/m² | - |
| 1778035856 | 20.56° C | 48% | 1005 hPa | 0 mm | 1.34 m/s, 125° | 0 W/m² | - |
| 1778035554 | 21.11° C | 48% | 1005 hPa | 0 mm | 2.24 m/s, 134° | 0 W/m² | - |
| 1778035250 | 20.56° C | 48% | 1005.2 hPa | 0 mm | 1.79 m/s, 134° | 0 W/m² | - |
| 1778034945 | 20.56° C | 47% | 1005.1 hPa | 0 mm | 2.68 m/s, 145° | 0 W/m² | - |
| 1778034643 | 20.56° C | 48% | 1005 hPa | 0 mm | 4.02 m/s, 137° | 0 W/m² | - |
* Rain latest hour (hover to see other rain measurements)
** Current wind speed in m/s (hover to see current wind gust speed)